[[{"header":{"parameterUnit":"m.s-1","parameterCategory":1,"la1":30.2991,"la2":30.254,"lo1":-89.0895,"lo2":-89.0444,"dy":0.0017,"dx":0.0017,"nx":28,"ny":28,"refTime":"2025-06-10T21:00:00:Z","depth":0,"parameterNumber":2,"parameterNumberName":"U-component_of_WINDS"},"data":[0,0,0,0,0,0,0,0,0,0,0,0,0,0,0,0,0,0,0,0,0,0,0,0,0,0,0,0,0,0,0,0,0,0,0,0,0,0,0,0,0,0,0,0,0,0,0,0,0,0,0,0,0,0,0,0,0,0,-0.4596,-0.4596,0,-0.4615,-0.4615,-0.4615,-0.4642,-0.4642,-0.4643,-0.4643,-0.4662,-0.4662,-0.4662,0,0,0,0,0,0,0,0,0,0,0,0,0,-0.4582,-0.4582,-0.4596,-0.4596,-0.4597,-0.4615,-0.4615,-0.4616,-0.4642,-0.4642,-0.4643,-0.4643,-0.4662,-0.4662,-0.4662,0,0,0,0,0,0,0,0,0,0,0,0,0,-0.4593,-0.4582,-0.4596,-0.4612,-0.4613,-0.4615,-0.4615,-0.4616,-0.4641,-0.4642,-0.4643,-0.4643,-0.4662,-0.4662,-0.4662,-0.4649,0,0,-0.4662,-0.4662,0,0,0,0,0,0,0,0,-0.4592,-0.4594,-0.4609,-0.4611,-0.4613,-0.4627,-0.4617,-0.4627,-0.4641,-0.4631,-0.4643,-0.4644,-0.4649,-0.4651,-0.4653,-0.465,-0.4651,-0.4662,-0.4662,-0.4662,-0.4662,0,0,0,0,0,0,0,-0.4592,-0.4593,-0.4604,-0.4609,-0.4611,-0.4618,-0.462,-0.4619,-0.4636,-0.4632,-0.4634,-0.4636,-0.465,-0.4652,-0.4653,-0.4651,-0.4662,-0.4662,-0.4662,-0.4662,-0.4639,-0.4638,0,0,0,0,0,0,-0.4589,-0.4592,-0.4603,-0.4604,-0.4604,-0.4617,-0.462,-0.4621,-0.4636,-0.4639,-0.4635,-0.4637,-0.4652,-0.4653,-0.4654,-0.464,-0.4662,-0.4662,-0.4663,-0.464,-0.4639,-0.4638,0,0,0,0,0,0,-0.4588,-0.4589,-0.4602,-0.4599,-0.4601,-0.4617,-0.4618,-0.4621,-0.4624,-0.4639,-0.4642,-0.4634,-0.4652,-0.4654,-0.465,-0.4641,-0.4663,-0.4663,-0.4641,-0.464,-0.4639,-0.4613,0,0,0,0,0,0,-0.4588,-0.4589,-0.4585,-0.4598,-0.4601,-0.4598,-0.4618,-0.4621,-0.4624,-0.4626,-0.4639,-0.4641,-0.4653,-0.465,-0.465,-0.4642,-0.4663,-0.4641,-0.464,-0.4639,-0.4614,-0.4611,-0.4608,0,0,0,0,0,-0.4587,-0.4577,-0.4584,-0.4586,-0.4596,-0.4598,-0.4599,-0.4613,-0.4623,-0.4619,-0.4628,-0.4641,-0.4642,-0.4649,-0.465,-0.4641,-0.4642,-0.4641,-0.4639,-0.4616,-0.4612,-0.4608,0,0,0,0,0,0,-0.4561,-0.4579,-0.4587,-0.4581,-0.4588,-0.4602,-0.4597,-0.4608,-0.4612,-0.4614,-0.4631,-0.4634,-0.4628,-0.4634,-0.4642,-0.463,-0.4644,-0.4642,-0.4626,-0.4622,-0.4619,-0.4618,-0.4663,0,0,0,0,0,-0.4555,-0.4555,-0.457,-0.4563,-0.4566,-0.4581,-0.4582,-0.4593,-0.46,-0.4603,-0.4612,-0.4619,-0.4621,-0.4622,-0.4624,-0.4615,-0.4618,-0.461,-0.4606,-0.4604,-0.4602,-0.4598,-0.4594,-0.4633,-0.4633,-0.4633,0,0,-0.4542,-0.4551,-0.455,-0.4558,-0.4565,-0.4564,-0.4583,-0.4582,-0.4582,-0.4603,-0.46,-0.4607,-0.4616,-0.4609,-0.4607,-0.4614,-0.4592,-0.4602,-0.4599,-0.4599,-0.4596,-0.4592,-0.4588,-0.4632,-0.4632,-0.4632,0,0,-0.4517,-0.4525,-0.452,-0.4525,-0.4535,-0.4545,-0.4543,-0.4556,-0.4562,-0.4559,-0.4574,-0.4574,-0.4577,-0.4583,-0.4586,-0.4563,-0.4575,-0.4563,-0.4546,-0.4542,-0.4538,-0.4536,-0.4528,-0.4524,-0.4562,-0.4562,-0.4562,0,-0.45,-0.45,-0.4515,-0.4513,-0.4516,-0.4535,-0.453,-0.4535,-0.4544,-0.4546,-0.4554,-0.4558,-0.4565,-0.456,-0.4554,-0.4556,-0.4555,-0.4562,-0.4538,-0.4535,-0.4533,-0.4525,-0.4522,-0.456,-0.456,-0.4561,-0.4561,0,-0.4478,-0.4478,-0.4473,-0.4482,-0.4484,-0.448,-0.4495,-0.4495,-0.4505,-0.4514,-0.4511,-0.452,-0.4524,-0.4524,-0.4533,-0.452,-0.4524,-0.4535,-0.4549,-0.4528,-0.4521,-0.4518,-0.4558,-0.4559,-0.4559,-0.456,0,0,-0.4439,-0.4456,-0.4454,-0.4458,-0.4469,-0.4469,-0.4466,-0.4471,-0.4471,-0.4477,-0.4474,-0.4476,-0.4486,-0.449,-0.45,-0.4496,-0.4477,-0.4507,-0.4507,-0.4501,-0.4462,-0.4454,-0.4451,-0.4484,-0.4484,-0.4484,-0.4462,0,-0.4417,-0.4413,-0.4426,-0.4419,-0.4419,-0.4436,-0.4434,-0.444,-0.4448,-0.4449,-0.4458,-0.4459,-0.4472,-0.4474,-0.4471,-0.448,-0.4469,-0.4481,-0.4482,-0.4482,-0.448,-0.4447,-0.4439,-0.4418,-0.4459,-0.4458,-0.4458,0,-0.4392,-0.4396,-0.4389,-0.44,-0.4401,-0.4398,-0.4403,-0.4404,-0.4411,-0.4417,-0.4421,-0.4433,-0.443,-0.4444,-0.444,-0.4448,-0.4449,-0.4454,-0.4453,-0.4454,-0.4469,-0.4447,-0.4411,-0.4408,-0.4454,-0.4454,-0.4455,0,-0.4364,-0.4368,-0.4364,-0.4367,-0.438,-0.4378,-0.4383,-0.4391,-0.4393,-0.4397,-0.4399,-0.4402,-0.4405,-0.4407,-0.4419,-0.4428,-0.4414,-0.4429,-0.4419,-0.4419,-0.4416,-0.4416,-0.438,-0.4416,-0.4416,-0.4416,-0.4416,0,-0.4338,-0.4333,-0.4352,-0.4349,-0.4344,-0.4359,-0.4353,-0.436,-0.4367,-0.4366,-0.4381,-0.4379,-0.4396,-0.4396,-0.4405,-0.4401,-0.4402,-0.4406,-0.4409,-0.4405,-0.4405,-0.4406,-0.4408,-0.4415,-0.4415,-0.4416,-0.4416,0,-0.4307,-0.4319,-0.4316,-0.4329,-0.4332,-0.4327,-0.4338,-0.4336,-0.4344,-0.4343,-0.4343,-0.4357,-0.4358,-0.437,-0.4374,-0.438,-0.4372,-0.4378,-0.437,-0.4372,-0.4361,-0.4362,-0.4325,-0.4321,-0.4359,-0.4359,-0.4359,0,-0.429,-0.4287,-0.4299,-0.4299,-0.4304,-0.4304,-0.4306,-0.432,-0.4321,-0.4329,-0.4326,-0.4329,-0.4331,-0.4332,-0.4342,-0.4345,-0.4351,-0.4337,-0.4351,-0.4347,-0.435,-0.4351,-0.435,-0.4335,-0.4334,-0.4334,-0.4333,0,-0.4259,-0.4265,-0.4268,-0.4271,-0.4273,-0.4277,-0.4282,-0.4281,-0.4297,-0.4297,-0.4298,-0.43,-0.4304,-0.4306,-0.431,-0.4316,-0.4327,-0.4329,-0.4327,-0.4323,-0.4319,-0.4321,-0.4362,-0.433,-0.433,-0.433,-0.4331,-0.4331,-0.4235,-0.4233,-0.424,-0.4242,-0.4247,-0.4251,-0.425,-0.4258,-0.4259,-0.4264,-0.4272,-0.4271,-0.4278,-0.4286,-0.429,-0.429,-0.4296,-0.4293,-0.4293,-0.4292,-0.429,-0.4318,-0.429,-0.4291,-0.4291,-0.4291,-0.4291,0,-0.4205,-0.4211,-0.4212,-0.4218,-0.4219,-0.423,-0.4235,-0.4235,-0.4235,-0.4241,-0.4243,-0.4244,-0.4246,-0.4255,-0.4258,-0.4256,-0.4261,-0.4257,-0.4257,-0.4258,-0.4283,-0.4285,-0.4252,-0.4252,-0.4252,-0.4252,-0.4252,-0.4252,-0.419,-0.4186,-0.4193,-0.4191,-0.4197,-0.4197,-0.4199,-0.4203,-0.4207,-0.4208,-0.4209,-0.4216,-0.4223,-0.4226,-0.4228,-0.4231,-0.4231,-0.4224,-0.4229,-0.4253,-0.4256,-0.426,-0.4261,-0.4224,-0.4224,-0.4204,-0.4203,-0.4203]},{"header":{"parameterUnit":"m.s-1","parameterCategory":1,"la1":30.2991,"la2":30.254,"lo1":-89.0895,"lo2":-89.0444,"dy":0.0017,"dx":0.0017,"nx":28,"ny":28,"refTime":"2025-06-10T21:00:00:Z","depth":0,"parameterNumber":3,"parameterNumberName":"V-component_of_WINDS"},"data":[0,0,0,0,0,0,0,0,0,0,0,0,0,0,0,0,0,0,0,0,0,0,0,0,0,0,0,0,0,0,0,0,0,0,0,0,0,0,0,0,0,0,0,0,0,0,0,0,0,0,0,0,0,0,0,0,0,0,2.238,2.238,0,2.2415,2.2416,2.2416,2.2412,2.2411,2.2411,2.241,2.2447,2.2449,2.245,0,0,0,0,0,0,0,0,0,0,0,0,0,2.2309,2.2311,2.238,2.238,2.2381,2.2415,2.2416,2.2416,2.2412,2.2411,2.241,2.241,2.2447,2.2449,2.245,0,0,0,0,0,0,0,0,0,0,0,0,0,2.2342,2.2311,2.238,2.2383,2.2383,2.2415,2.2416,2.2417,2.2412,2.2411,2.241,2.2409,2.2446,2.2448,2.2451,2.2482,0,0,2.2458,2.2459,0,0,0,0,0,0,0,0,2.234,2.2345,2.2382,2.2383,2.2383,2.2408,2.2405,2.2439,2.2412,2.2401,2.241,2.2409,2.2435,2.2438,2.2447,2.2484,2.2486,2.2458,2.2459,2.246,2.2461,0,0,0,0,0,0,0,2.2338,2.2343,2.2394,2.2382,2.2383,2.2383,2.2386,2.2411,2.2423,2.2402,2.2402,2.2406,2.2435,2.2445,2.2448,2.2486,2.2458,2.246,2.2461,2.2462,2.2553,2.2554,0,0,0,0,0,0,2.2335,2.2341,2.2393,2.2395,2.2359,2.2385,2.2389,2.2401,2.2422,2.2425,2.2407,2.2406,2.2441,2.2445,2.2449,2.2488,2.246,2.2462,2.2464,2.2552,2.2553,2.2554,0,0,0,0,0,0,2.2333,2.2339,2.2391,2.2368,2.2375,2.2387,2.2401,2.2402,2.2412,2.2426,2.2428,2.2414,2.2441,2.2446,2.2474,2.2489,2.2463,2.2466,2.255,2.2552,2.2553,2.2566,0,0,0,0,0,0,2.2331,2.2339,2.2351,2.2368,2.2376,2.2416,2.2402,2.2404,2.2415,2.2414,2.2433,2.2436,2.244,2.2471,2.2477,2.2492,2.2467,2.2549,2.2551,2.2553,2.2564,2.2567,2.257,0,0,0,0,0,2.2329,2.2353,2.2351,2.2357,2.2391,2.2416,2.2421,2.2425,2.2417,2.2429,2.2438,2.2435,2.2487,2.2474,2.248,2.2496,2.2548,2.2551,2.2553,2.2563,2.2567,2.257,0,0,0,0,0,0,2.2336,2.2355,2.2354,2.2384,2.2399,2.2416,2.2431,2.243,2.2447,2.2446,2.2451,2.2456,2.2485,2.2493,2.2479,2.2529,2.2516,2.252,2.2522,2.2526,2.2529,2.2526,2.2469,0,0,0,0,0,2.2341,2.236,2.2376,2.2401,2.2409,2.2419,2.243,2.2432,2.2448,2.2454,2.2466,2.2481,2.2501,2.2514,2.2533,2.2566,2.257,2.258,2.2583,2.2586,2.2589,2.2607,2.2612,2.2562,2.2562,2.2561,0,0,2.2352,2.2365,2.2376,2.2403,2.2415,2.2435,2.2424,2.2445,2.246,2.2458,2.2485,2.2494,2.2512,2.2543,2.2557,2.2551,2.2604,2.2589,2.2591,2.2592,2.261,2.2615,2.2619,2.2563,2.2563,2.2563,0,0,2.2382,2.2393,2.2416,2.2428,2.2446,2.2453,2.2458,2.2476,2.2482,2.251,2.2508,2.2527,2.2561,2.2574,2.2585,2.2621,2.2619,2.2627,2.2644,2.2662,2.2666,2.2669,2.2682,2.2687,2.263,2.263,2.263,0,2.2393,2.2422,2.2427,2.2449,2.2461,2.246,2.2483,2.2495,2.2519,2.2527,2.252,2.2564,2.2576,2.261,2.2619,2.2628,2.2635,2.2625,2.2665,2.2668,2.2672,2.2684,2.2689,2.2631,2.2631,2.2631,2.2631,0,2.2435,2.2456,2.2472,2.2495,2.2509,2.2531,2.254,2.2554,2.2556,2.2563,2.2593,2.2607,2.2629,2.2638,2.264,2.2673,2.2669,2.2663,2.2651,2.2677,2.2689,2.2694,2.2632,2.2632,2.2632,2.2632,0,0,2.2469,2.2495,2.2501,2.2512,2.2532,2.2549,2.2572,2.2593,2.2605,2.2622,2.2642,2.2671,2.2667,2.2679,2.2683,2.2699,2.2727,2.2692,2.2692,2.2698,2.2765,2.2768,2.2774,2.2726,2.2727,2.2728,2.2763,0,2.2501,2.2541,2.2547,2.2582,2.2602,2.2602,2.2622,2.2637,2.2645,2.2664,2.2673,2.2694,2.2686,2.2694,2.271,2.272,2.2741,2.2718,2.2745,2.2746,2.274,2.278,2.2784,2.2816,2.2768,2.2769,2.277,0,2.2543,2.2561,2.2598,2.2617,2.2625,2.2643,2.2664,2.2681,2.2699,2.2704,2.2719,2.2721,2.2745,2.2733,2.2767,2.2751,2.2763,2.277,2.2771,2.2774,2.2759,2.2783,2.2827,2.2832,2.2777,2.2776,2.2776,0,2.2564,2.2598,2.2624,2.2634,2.2656,2.2669,2.2679,2.2695,2.2708,2.2727,2.2736,2.2757,2.2769,2.2786,2.2794,2.2784,2.2828,2.2816,2.2833,2.2833,2.2842,2.2841,2.2887,2.285,2.285,2.285,2.285,0,2.2598,2.2621,2.2634,2.2651,2.2677,2.2684,2.2709,2.2719,2.2734,2.2753,2.2755,2.2773,2.2783,2.2802,2.2809,2.2837,2.2842,2.2847,2.2848,2.2847,2.2846,2.2854,2.2852,2.2851,2.2851,2.2851,2.285,0,2.2626,2.2635,2.2665,2.2684,2.2689,2.2708,2.2724,2.2741,2.2749,2.2773,2.2779,2.2793,2.2816,2.2826,2.2855,2.286,2.2891,2.2891,2.2885,2.2885,2.2902,2.2901,2.2955,2.2963,2.2921,2.2921,2.2921,0,2.2647,2.2665,2.2686,2.2698,2.2709,2.2729,2.2743,2.2751,2.2765,2.2787,2.2801,2.2824,2.2843,2.288,2.2893,2.2916,2.2916,2.2934,2.2919,2.2917,2.2916,2.2915,2.2917,2.2936,2.2936,2.2937,2.2937,0,2.2683,2.2687,2.2706,2.2728,2.2744,2.2761,2.2777,2.2788,2.2799,2.2815,2.2838,2.2853,2.2883,2.2906,2.2929,2.294,2.2941,2.2942,2.2947,2.2945,2.2941,2.2943,2.2892,2.294,2.294,2.294,2.2939,2.2939,2.2708,2.2724,2.2742,2.2763,2.2777,2.2793,2.2809,2.282,2.284,2.2864,2.2868,2.2893,2.2912,2.2943,2.2955,2.2976,2.2972,2.2979,2.2981,2.2983,2.2984,2.2938,2.298,2.298,2.298,2.298,2.298,0,2.2745,2.2756,2.2776,2.2799,2.2817,2.2816,2.2834,2.2849,2.2871,2.2888,2.2907,2.2935,2.2958,2.2973,2.2996,2.301,2.3011,2.3016,2.3014,2.3017,2.2986,2.2979,2.3015,2.3015,2.3015,2.3014,2.3014,2.3014,2.2766,2.2793,2.2799,2.2833,2.2845,2.2869,2.288,2.2895,2.2909,2.2939,2.2958,2.2968,2.2985,2.301,2.3031,2.3035,2.3043,2.3049,2.3052,2.3023,2.3019,2.3016,2.3009,2.305,2.305,2.3082,2.3082,2.3082]}]]